Find Starlink 5617

NORAD ID: 55753 Int'l Des: 2023-028 Owner: SPXS Country: US Constellation: starlink operational
LEOCIRCULAR

当前视图

正在加载3D地球...

About Starlink 5617

Starlink 5617 (NORAD 55753) is a starlink constellation satellite (v1.5) launched Mar 3, 2023 by SPXS of US. It operates in LEO, CIRCULAR orbit with a mass of 305.00 kg.

关于 Starlink 5617

正在加载描述...

即将过境

Passes for default location (London). Set your location on the main map for personalized predictions.

高度历史

Loading altitude history...

两行轨道根数

1 55753U 23028N 26178.12687671 .00000778 00000-0 72984-4 0 9998
2 55753 69.9997 328.4919 0003125 268.4279 91.6522 14.98328472182432
Epoch: Jun 27, 2026 • Age: 11 hours

当前状态

高度 595.2 km
速度 7.56 km/s
星下点 -69.14°S, 131.53°E
发射日期 Mar 3, 2023
运行时间 3.3 years
类型 internet

技术详情

分类 Payload
质量 305.00 kg
干质量 290.00 kg
总质量 305.00 kg
长度 0.20 m
直径 2.80 m
跨度 9.00 m
形状 Box + pan
制造商 SPXS
平台类型 Starlink
阶段状态 In Orbit
所有者/国家 SPXS/US

Most Searched